Ellsworth AFB, SD

7:02 PM MDT on March 27, 2017 (GMT -0600)
Ellsworth Air Force Base

Weather History for KRCA - March, 2014

Change the Weather History Date:

Monday, March 31, 2014

  Actual Average Record
Temperature  
Mean Temperature 29 °F -  
Max Temperature 37 °F 47 °F 82 °F (2012)
Min Temperature 17 °F 27 °F 17 °F (2009)
Degree Days  
Heating Degree Days 36    
Moisture  
Dew Point 23 °F    
Average Humidity 90    
Maximum Humidity 100    
Minimum Humidity 76    
Precipitation  
Precipitation 0.01 in - - ()
Sea Level Pressure  
Sea Level Pressure 29.78 in    
Wind  
Wind Speed 18 mph (North)    
Max Wind Speed 41 mph    
Max Gust Speed 58 mph    
Visibility 4 miles    
Events Fog , Rain , Snow    
Averages and records for this station are not official NWS values.
T = Trace of Precipitation, MM = Missing Value Source: NWS Daily Summary

Daily Weather History Graph

Daily Weather History Graph

Search for Another Location

Airport or City:

Trip Planner

Search our weather history database for the weather conditions in past years. The results will help you decide how hot, cold, wet, or windy it might be!

Date:

Astronomy

Mar. 31, 2014 Rise Set
Actual Time 6:35 AM MDT 7:18 PM MDT
Civil Twilight 6:06 AM MDT 7:47 PM MDT
Nautical Twilight 5:31 AM MDT 8:22 PM MDT
Astronomical Twilight 4:55 AM MDT 8:58 PM MDT
Moon 6:58 AM MDT (3/31) 8:43 PM MDT (3/31)
Length of Visible Light 13h 41m
Length of Day
12h 43m
New Moon, 1% of the Moon is Illuminated
Mar 31
New Moon
Apr 7
First Quarter
Apr 15
Full
Apr 22
Last Quarter
Apr 29
New

Hourly Weather History & Observations

Time (MDT) Temp. Windchill Dew Point Humidity Pressure Visibility Wind Dir Wind Speed Gust Speed Precip Events Conditions
12:18 AM 41.0 °F 33.1 °F 35.6 °F 81% 29.53 in 10.0 mi North 15.0 mph - N/A   Overcast
12:28 AM 39.2 °F 30.8 °F 35.6 °F 87% 29.53 in 10.0 mi NNE 15.0 mph - N/A   Overcast
12:31 AM 39.2 °F 30.8 °F 35.6 °F 87% 29.54 in 10.0 mi NNE 15.0 mph - N/A Rain Light Rain
12:46 AM 37.4 °F 29.3 °F 35.6 °F 93% 29.55 in 10.0 mi NNE 12.7 mph - N/A Rain Light Rain
12:57 AM 37.4 °F 28.5 °F 35.6 °F 93% 29.57 in 10.0 mi NNE 15.0 mph - 0.00 in   Overcast
1:37 AM 35.6 °F 25.5 °F 33.8 °F 93% 29.55 in 10.0 mi NNE 17.3 mph - N/A   Overcast
1:57 AM 35.6 °F 25.2 °F 33.3 °F 91% 29.57 in 10.0 mi NNE 18.4 mph - 0.00 in   Overcast
1:58 AM 35.6 °F 25.2 °F 33.3 °F 91% 29.57 in 10.0 mi NNE 18.4 mph - 0.00 in   Overcast
2:03 AM 35.6 °F 24.2 °F 32.0 °F 87% 29.55 in 10.0 mi NNE 21.9 mph 24.2 mph N/A   Overcast
2:13 AM 35.6 °F 24.2 °F 32.0 °F 87% 29.55 in 10.0 mi NNE 21.9 mph - N/A   Overcast
2:33 AM 33.8 °F 22.2 °F 32.0 °F 93% 29.57 in 9.0 mi NNE 20.7 mph - N/A   Overcast
2:58 AM 32.7 °F 19.3 °F 31.3 °F 94% 29.60 in 4.0 mi North 26.5 mph 31.1 mph N/A   Overcast
3:02 AM 32.0 °F 18.4 °F 32.0 °F 100% 29.57 in 2.5 mi North 26.5 mph 33.4 mph N/A Snow Light Snow
3:07 AM 32.0 °F 18.4 °F 32.0 °F 100% 29.58 in 1.2 mi North 26.5 mph 33.4 mph N/A Snow Light Snow
3:12 AM 32.0 °F 18.9 °F 32.0 °F 100% 29.58 in 0.8 mi North 24.2 mph 33.4 mph N/A Snow Light Snow
3:17 AM 32.0 °F 19.8 °F 32.0 °F 100% 29.59 in 0.5 mi North 20.7 mph - N/A Fog , Rain Light Freezing Rain
3:33 AM 32.0 °F 22.5 °F 30.2 °F 93% 29.59 in 0.8 mi North 12.7 mph - N/A Rain Light Freezing Rain
3:48 AM 30.2 °F 23.4 °F 30.2 °F 100% 29.61 in 1.5 mi North 6.9 mph - N/A Rain Light Freezing Rain
3:58 AM 30.2 °F 25.4 °F 28.4 °F 93% 29.64 in 1.5 mi North 4.6 mph - 0.01 in Rain Light Freezing Rain
4:08 AM 30.2 °F 25.4 °F 28.4 °F 93% 29.63 in 3.0 mi Variable 4.6 mph - N/A Rain Light Freezing Rain
4:38 AM 28.4 °F 23.3 °F 26.6 °F 93% 29.65 in 5.0 mi Variable 4.6 mph - N/A Rain Light Freezing Rain
4:58 AM 27.5 °F 21.1 °F 26.4 °F 96% 29.71 in 6.0 mi North 5.8 mph - 0.00 in Rain Light Freezing Rain
5:49 AM 23.0 °F 17.0 °F 21.2 °F 93% 29.69 in 4.0 mi NNW 4.6 mph - N/A Snow Light Snow
5:58 AM 23.2 °F 18.7 °F 21.4 °F 93% 29.76 in 4.0 mi NNW 3.5 mph - 0.00 in Snow Light Snow
6:03 AM 23.0 °F 17.0 °F 21.2 °F 93% 29.70 in 2.0 mi NNW 4.6 mph - N/A Snow Light Snow
6:08 AM 23.0 °F 18.4 °F 21.2 °F 93% 29.71 in 1.2 mi Variable 3.5 mph - N/A Snow Light Snow
6:13 AM 21.2 °F 14.9 °F 19.4 °F 93% 29.71 in 1.0 mi North 4.6 mph - N/A Snow Light Snow
6:18 AM 21.2 °F 14.9 °F 19.4 °F 93% 29.71 in 1.2 mi Variable 4.6 mph - N/A Snow Light Snow
6:23 AM 21.2 °F 14.9 °F 19.4 °F 93% 29.72 in - NNW 4.6 mph - N/A   Overcast
6:39 AM 21.2 °F 14.9 °F 19.4 °F 93% 29.72 in 1.0 mi NNW 4.6 mph - N/A Rain Light Freezing Rain
6:43 AM 21.2 °F 6.8 °F 19.4 °F 93% 29.72 in 1.2 mi NNW 17.3 mph 32.2 mph N/A Snow Light Snow
6:45 AM 21.2 °F 6.8 °F 17.6 °F 86% 29.73 in 0.8 mi NNW 17.3 mph 34.5 mph N/A Snow Light Snow
6:56 AM 19.4 °F -1.3 °F 17.6 °F 93% 29.73 in 0.2 mi NNW 38.0 mph 47.2 mph N/A Snow Light Snow
6:58 AM 19.4 °F -1.3 °F 17.6 °F 93% 29.80 in 0.2 mi North 38.0 mph 46.0 mph 0.00 in Snow Light Snow
7:08 AM 19.4 °F -1.1 °F 15.8 °F 86% 29.74 in 0.2 mi NNW 36.8 mph 48.3 mph N/A Snow Light Snow
7:57 AM 19.2 °F -1.6 °F 16.2 °F 88% 29.83 in 0.2 mi NNW 38.0 mph 49.5 mph 0.00 in Snow Light Snow
8:03 AM 19.4 °F -2.0 °F 15.8 °F 86% 29.75 in 0.2 mi NNW 41.4 mph 55.2 mph N/A Snow Light Snow
8:39 AM 19.4 °F -1.8 °F 15.8 °F 86% 29.74 in 0.1 mi NNW 40.3 mph 56.4 mph N/A Snow Heavy Snow
8:44 AM 19.4 °F -1.8 °F 15.8 °F 86% 29.74 in 0.1 mi NNW 40.3 mph 56.4 mph N/A Snow Heavy Snow
9:00 AM 17.6 °F -4.3 °F 15.8 °F 93% 29.76 in 0.1 mi NNW 40.3 mph 57.5 mph N/A Snow Heavy Snow
9:09 AM 17.6 °F -4.3 °F 15.8 °F 93% 29.76 in 0.1 mi NNW 40.3 mph 57.5 mph N/A Snow Heavy Snow
9:58 AM 18.3 °F -0.6 °F 16.2 °F 91% 29.88 in 0.2 mi NNW 28.8 mph 40.3 mph 0.00 in Snow Heavy Snow
10:27 AM 19.4 °F -1.8 °F 17.6 °F 93% 29.82 in 0.1 mi NNW 40.3 mph 57.5 mph N/A Snow Heavy Snow
10:58 AM 18.7 °F -2.8 °F 16.5 °F 91% 29.93 in 0.1 mi NNW 40.3 mph 57.5 mph 0.00 in Snow Heavy Snow
11:58 AM 20.1 °F -0.8 °F 17.6 °F 90% 29.98 in 0.2 mi NNW 40.3 mph 57.5 mph 0.00 in Snow Heavy Snow
12:58 PM 21.2 °F 0.7 °F 19.4 °F 93% 29.99 in 0.5 mi NNW 40.3 mph 57.5 mph 0.00 in Snow Light Snow
1:58 PM 24.1 °F 5.9 °F 20.8 °F 87% 30.03 in 1.0 mi NNW 34.5 mph 46.0 mph 0.00 in Snow Blowing Snow
2:58 PM 25.0 °F 8.4 °F 21.9 °F 88% 30.06 in 1.0 mi NNW 28.8 mph 40.3 mph 0.00 in Snow Light Snow
3:14 PM 24.8 °F 11.5 °F 21.2 °F 86% 29.96 in 5.0 mi NNW 17.3 mph 28.8 mph N/A Snow Blowing Snow
3:58 PM 25.5 °F 12.4 °F 20.8 °F 82% 30.09 in 5.0 mi NNW 17.3 mph 28.8 mph 0.00 in Snow Blowing Snow
4:58 PM 24.8 °F 12.9 °F 19.4 °F 80% 30.13 in 10.0 mi NNW 13.8 mph 21.9 mph 0.00 in   Overcast
5:58 PM 24.6 °F 13.8 °F 18.1 °F 76% 30.17 in 10.0 mi NNW 11.5 mph 17.3 mph 0.00 in   Overcast
6:58 PM 24.1 °F 12.0 °F 17.6 °F 76% 30.19 in 10.0 mi NNW 13.8 mph - N/A   Overcast
7:58 PM 23.0 °F 10.6 °F 17.1 °F 78% 30.20 in 10.0 mi NNW 13.8 mph - N/A   Overcast
8:58 PM 22.1 °F 9.5 °F 16.5 °F 79% 30.22 in 10.0 mi NNW 13.8 mph - N/A   Clear
9:58 PM 21.4 °F 8.0 °F 16.5 °F 82% 30.20 in 10.0 mi NNW 15.0 mph - N/A   Clear
10:58 PM 21.2 °F 8.3 °F 16.3 °F 82% 30.19 in 10.0 mi North 13.8 mph - N/A   Clear
11:58 PM 17.1 °F 5.0 °F 13.5 °F 86% 30.20 in 10.0 mi NNW 10.4 mph - 0.00 in   Clear